Volver al catálogo

STARLINK-37584

ActivoComunicacionesVLEO
NORAD 69844·PAYLOAD·🇺🇸 United States

Lanzado Jul 5, 2026 desde Cape Canaveral Space Force Station

Loading…

Próximos Pases (próximas 24 horas)

TLE

ActualizadoSource: CelesTrak SupGP

Época: Sep 15, 2026, 03:57 UTC

1 69844C 26154AB  26258.16506944  .00068694  00000+0  20290-2 0  2582
2 69844  53.1589 356.6349 0001170  90.2102 105.9573 15.34365032    16

Sigue STARLINK-37584 en tiempo real con AllMySat

Download on the App Store